COSMOS 1417

导读

COSMOS 1417是苏联(独联体CIS)在1982年10月19日发射的一颗宇宙系列卫星,遵循苏联对军用、科学卫星统一以“Cosmos+序号”的命名规则。该系列卫星多数承担军事相关任务,用途涵盖侦察、电子情报、空间技术试验等,通过模糊命名隐藏任务属性。它作为冷战时期苏联航天部署的组成部分,如今已完成使命退役,成为漂浮在近地空间的人造天体。

基本信息
目录编号:
13617
目录名称:
COSMOS 1417
国际标识:
1982-102A
轨道中心:
EARTH
卫星名称:
COSMOS 1417
卫星全名:
--
卫星状态:
在轨 (已飞行16033 天)
发射日期:
1982-10-19 UTC
国别 :
俄罗斯(独联体) (CIS)
星等 :
--
轨道信息
数据来源 国际轨道数据
星历时间: 2026-09-10T22:14:49+0800
13小时前
查看轨道信息
半长轴: 7357.584km
偏心率: 0.0034109
轨道倾角: 82.971°
近地点辐角 184.676°
升交点赤经 195.975°
平近点角 348.957°
近地点: 954.351km
远地点: 1004.543km
周期: 104.680分钟
每日圈数: 13.756247
详细信息
使用方式:
暂无
2D轨道图
3D轨道图
轨道高度分析图
轨道倾角分析图
轨道综合分析图
查看轨道综合分析图
与全量物体交会距离演化趋势
与全量物体交会风险概率演化趋势